Regional Weather Roundup
Issued by NWS

Home | Current Version | Previous Version | Graphics & Text | Print | Product List | Glossary Off
Versions: 1 2 3 4 5 6 7 8 9 10 11 12 13 14 15 16 17 18 19 20 21 22 23 24 25 26 27 28 29 30 31 32 33 34 35 36 37 38 39 40 41 42 43 44 45 46 47 48 49 50

000
ASUS43 KMKX 041100
RWRWI

WISCONSIN REGIONAL WEATHER ROUNDUP
NATIONAL WEATHER SERVICE MILWAUKEE/SULLIVAN WI
600 AM CDT WED MAY 04 2016

NOTE: "FAIR" INDICATES FEW OR NO CLOUDS BELOW 12,000 FEET WITH NO
SIGNIFICANT WEATHER AND/OR OBSTRUCTIONS TO VISIBILITY.

WIZ001-002-006>008-014>016-023>028-041200-
NORTHWEST WISCONSIN

CITY           SKY/WX    TMP DP  RH WIND       PRES   REMARKS
SUPERIOR ARPT  CLEAR     41  32  70 N5        29.93R
ASHLAND        CLEAR     40  33  76 N9        29.89S WCI  34
HAYWARD        CLEAR     31  27  85 CALM      29.89S
SIREN          CLEAR     33  28  85 NW5       29.92S WCI  28
CUMBERLAND     CLEAR     37  32  81 NW8       29.90R WCI  31
RICE LAKE      CLEAR     41  32  70 NW5       29.91R
CHETEK         CLEAR     41  33  75 CALM      29.89R
LADYSMITH      CLEAR     39  34  81 NW9       29.87S WCI  33
EAU CLAIRE     NOT AVBL
MENOMONIE      CLEAR     41  32  71 W6        29.89S
NEW RICHMOND   CLEAR     40  32  72 NW7       29.92S
OSCEOLA        CLEAR     43  33  69 CALM      29.96R
$$

WIZ003>005-009-010-017-018-041200-
NORTH CENTRAL WISCONSIN

CITY           SKY/WX    TMP DP  RH WIND       PRES   REMARKS
MANITOWISH WTR PTCLDY    39  34  84 N7        29.82R WCI  34
ARBOR VITAE    MOCLDY    42  37  83 N9G18     29.81S
WOODRUFF       MOCLDY    42  37  83 N9G18     29.81S
RHINELANDER    LGT RAIN  39  35  86 N9        29.81R WCI  33
EAGLE RIVER    CLOUDY    37  32  80 N13G21    29.80S WCI  29
LAND O LAKES   CLOUDY    38  34  86 N12G20    29.81S WCI  30
PHILLIPS       PTCLDY    38  33  82 NW5       29.82S WCI  34
TOMAHAWK       CLOUDY    38  35  88 NW3       29.81S
MEDFORD        CLEAR     35  34  98 NW5       29.81S WCI  31
MERRILL        MOCLDY    37  36  93 N6        29.81R WCI  33
$$

WIZ029-030-035-036-043>047-041200-
CENTRAL WISCONSIN

CITY           SKY/WX    TMP DP  RH WIND       PRES   REMARKS
WAUSAU         CLOUDY    41  36  82 NW7       29.79S
MOSINEE        MOCLDY    39  37  93 NW8       29.81S WCI  34
MARSHFIELD     CLEAR     38  34  85 NW8       29.81R WCI  32
STEVENS POINT  CLOUDY    38  35  88 NW6       29.80S WCI  34
WAUPACA        PTCLDY    42  36  79 NW8       29.78R
WAUTOMA        CLEAR     41  37  86 NW9       29.79R
WISC RAPIDS    CLEAR     40  35  83 N8        29.82R WCI  34
CAMP DOUGLAS   NOT AVBL
$$

WIZ011>013-019>022-031-037>040-048>050-041200-
NORTHEAST WISCONSIN

CITY           SKY/WX    TMP DP  RH WIND       PRES   REMARKS
ANTIGO         PTCLDY    38  35  90 N14       29.78R WCI  29
SHAWANO        MOCLDY    41  36  81 N6        29.77R
OCONTO         MOCLDY    40  39  94 N7        29.74S
STURGEON BAY   PTCLDY    41  34  75 N16       29.74S
GREEN BAY      LGT RAIN  42  36  79 N13       29.75R
MANITOWOC      NOT AVBL
APPLETON       MOCLDY    39  34  81 N10       29.74R WCI  32
CLINTONVILLE   MOCLDY    41  34  75 N7        29.77R
OSHKOSH        CLEAR     41  35  79 N13       29.76R
$$

WIZ032>034-041-042-053>061-041200-
SOUTHWEST WISCONSIN

CITY           SKY/WX    TMP DP  RH WIND       PRES   REMARKS
LA CROSSE      CLEAR     44  37  76 N8        29.86R
SPARTA         CLEAR     41  38  90 N3        29.85R
VIROQUA        PTCLDY    42  40  91 N12       29.82R
BOSCOBEL       MOCLDY    47  42  83 N10       29.82R
PRAIRIE DU CHI CLEAR     47  40  76 N12G20    29.82R
PLATTEVILLE    CLEAR     45  44  97 N14       29.78R
$$

WIZ056-057-062-063-064-067-068-041200-
SOUTH CENTRAL WISCONSIN

CITY           SKY/WX    TMP DP  RH WIND       PRES   REMARKS
REEDSBURG      CLOUDY    44  40  86 N10       29.79R
BARABOO/DELLS  CLOUDY    43  40  86 N7        29.78R
LONE ROCK      NOT AVBL
MINERAL POINT  MOCLDY    45  45 100 N13       29.78R
MADISON        PTCLDY    43  40  89 N9        29.76R
MIDDLETON      PTCLDY    45  42  89 N10       29.76S
WATERTOWN      PTCLDY    44  44 100 N10       29.73R
MONROE         MOCLDY    45  43  93 N14G20    29.74R
JANESVILLE     MOCLDY    46  45  93 N8        29.73R
$$

WIZ051-052-058>065-066-070>072-041200-
SOUTHEAST WISCONSIN

CITY           SKY/WX    TMP DP  RH WIND       PRES   REMARKS
MILWAUKEE      MOCLDY    46  40  79 N13G20    29.70R
WAUKESHA       MOCLDY    43  39  87 NW17      29.72R
MILWAUKEE/TIMM MOCLDY    45  37  76 N12G18    29.70R
RACINE         MOCLDY    44  40  85 N13       29.71R
BURLINGTON     CLOUDY    46  43  92 N9        29.70R
KENOSHA        CLOUDY    44  40  85 N7        29.70R
FOND DU LAC    CLOUDY    43  37  79 N15       29.76R
SHEBOYGAN      PTCLDY    42  36  79 N14       29.72R
WEST BEND      CLOUDY    43  37  81 N15G22    29.71R
JUNEAU         MOCLDY    42  39  89 N9        29.75R
$$

LSZ147-162-041200-
LAKE SUPERIOR

STATION/POSITION TIME  TEMP    WIND        PRES    WAVE
                       AIR SEA DIR/SP/G            HT/PER
                 (UTC) (F)     (DEG/KT/KT) (MB)    (FT/S)
W MID LAKE BUOY  0950   38 37  320/  6/  6 1011.9R   1/ 4
DEVILS ISLAND    1000   42     340/ 13/ 15 1012.7R
SAXON HARBOR     1000   42     310/ 11/ 13 1011.2S
$$

LMZ867-665-643>646-041200-
LAKE MICHIGAN

STATION/POSITION TIME  TEMP    WIND        PRES    WAVE
                       AIR SEA DIR/SP/G            HT/PER
                 (UTC) (F)     (DEG/KT/KT) (MB)    (FT/S)
CHAMBERS ISLAND  1000   42     320/ 14/ 16 1006.8R
N MID LAKE BUOY  0950   40 38  320/ 19/ 23 1004.4R   4/ 4
NORTHPORT PIER   1000   41     340/ 23     1006.1R
ALGOMA LAKESHORE 0915          330/ 14/ 18   N/A
KEWAUNEE LAKESHO 1000   42     340/ 11/ 17 1005.3R
SHEBOYGAN LAKESH 1000   45     350/ 22/ 25 1006.1R
PORT WASHINGTON  1000   46     350/  6/  8 1006.4R
S MID LAKE BUOY  0950   42 41  360/ 17/ 21 1003.0R   2/ 3
KENOSHA   LAKESH 1000   45      10/ 25/ 30 1004.4R
$$

TC  - TEMPERATURE IN CELSIUS
VSB - VISIBILITY IN STATUTE MILES
WCI - WIND CHILL INDEX
HX  - HEAT INDEX




USA.gov is the U.S. government's official web portal to all federal, state and local government web resources and services.